Change the Weather History Date:

Sunday, December 2, 2012

  Actual Average (KNBC) Record (KNBC)
Temperature  
Mean Temperature 65 °F -  
Max Temperature 75 °F 63 °F 80 °F (1970)
Min Temperature 55 °F 45 °F 24 °F (1965)
Growing Degree Days 15 (Base 50)    
Moisture  
Dew Point 57 °F    
Average Humidity 82    
Maximum Humidity 100    
Minimum Humidity 50    
Precipitation  
Precipitation 0.00 in - - ()
Sea Level Pressure  
Sea Level Pressure 30.32 in    
Wind  
Wind Speed 4 mph (ENE)    
Max Wind Speed 8 mph    
Max Gust Speed -    
Visibility 8 miles    
Events Fog , Rain    
Averages and records for this station are not official NWS values.
T = Trace of Precipitation, MM = Missing Value Source: NWS Daily Summary

Daily Weather History Graph

Daily Weather History Graph

Search for Another Location

Airport or City:

Trip Planner

Search our weather history database for the weather conditions in past years. The results will help you decide how hot, cold, wet, or windy it might be!

Date:

Astronomy

Dec. 02, 2012 Rise Set
Actual Time 7:07 AM EST 5:16 PM EST
Civil Twilight 6:40 AM EST 5:43 PM EST
Nautical Twilight 6:10 AM EST 6:14 PM EST
Astronomical Twilight 5:40 AM EST 6:43 PM EST
Moon 8:57 PM EST (12/2) 10:00 AM EST (12/2)
Length of Visible Light 11h 03m
Length of Day
10h 09m
Waning Gibbous, 86% of the Moon is Illuminated
Dec 2
Waning Gibbous
Dec 6
Last Quarter
Dec 13
New
Dec 20
First Quarter
Dec 28
Full

Hourly Weather History & Observations

Time (EST) Temp. Dew Point Humidity Pressure Visibility Wind Dir Wind Speed Gust Speed Precip Events Conditions
12:15 AM 59.0 °F 53.6 °F 82% 30.33 in 10.0 mi ENE 5.8 mph - N/A   Clear
12:35 AM 59.0 °F 51.8 °F 77% 30.33 in 10.0 mi NE 6.9 mph - N/A   Scattered Clouds
12:55 AM 59.0 °F 51.8 °F 77% 30.33 in 10.0 mi NE 4.6 mph - N/A   Overcast
1:15 AM 57.2 °F 51.8 °F 82% 30.33 in 10.0 mi NE 4.6 mph - N/A   Mostly Cloudy
1:35 AM 57.2 °F 53.6 °F 88% 30.33 in 10.0 mi NNE 3.5 mph - N/A   Overcast
1:55 AM 57.2 °F 53.6 °F 88% 30.33 in 10.0 mi NNE 3.5 mph - N/A   Overcast
2:15 AM 59.0 °F 53.6 °F 82% 30.32 in 10.0 mi NE 3.5 mph - N/A   Overcast
2:35 AM 57.2 °F 53.6 °F 88% 30.33 in 10.0 mi NNE 3.5 mph - N/A   Overcast
2:55 AM 57.2 °F 53.6 °F 88% 30.32 in 10.0 mi NE 4.6 mph - N/A   Overcast
3:15 AM 59.0 °F 55.4 °F 88% 30.32 in 10.0 mi NE 4.6 mph - N/A   Overcast
3:35 AM 59.0 °F 55.4 °F 88% 30.32 in 10.0 mi NE 4.6 mph - N/A   Overcast
3:55 AM 59.0 °F 55.4 °F 88% 30.32 in 10.0 mi Calm Calm - N/A   Overcast
4:15 AM 59.0 °F 55.4 °F 88% 30.33 in 7.0 mi ESE 3.5 mph - N/A Rain Light Rain
4:35 AM 60.8 °F 59.0 °F 94% 30.32 in 5.0 mi ESE 4.6 mph - N/A Rain Rain
4:55 AM 60.8 °F 59.0 °F 94% 30.32 in 10.0 mi East 5.8 mph - N/A   Overcast
5:15 AM 59.0 °F 57.2 °F 94% 30.32 in 10.0 mi NE 4.6 mph - N/A   Overcast
5:35 AM 59.0 °F 57.2 °F 94% 30.33 in 10.0 mi Calm Calm - N/A   Overcast
5:55 AM 60.8 °F 59.0 °F 94% 30.33 in 10.0 mi NE 3.5 mph - N/A   Overcast
6:15 AM 60.8 °F 59.0 °F 94% 30.33 in 10.0 mi Calm Calm - N/A   Overcast
6:35 AM 60.8 °F 59.0 °F 94% 30.33 in 10.0 mi North 3.5 mph - N/A   Overcast
6:55 AM 60.8 °F 59.0 °F 94% 30.34 in 10.0 mi Calm Calm - N/A   Overcast
7:15 AM 60.8 °F 59.0 °F 94% 30.34 in 10.0 mi ENE 3.5 mph - N/A   Overcast
7:35 AM 62.6 °F 59.0 °F 88% 30.35 in 10.0 mi East 4.6 mph - N/A   Overcast
8:15 AM 62.6 °F 59.0 °F 88% 30.35 in 10.0 mi ENE 3.5 mph - N/A   Overcast
8:35 AM 62.6 °F 59.0 °F 88% 30.36 in 10.0 mi Calm Calm - N/A   Mostly Cloudy
8:55 AM 62.6 °F 59.0 °F 88% 30.36 in 10.0 mi East 4.6 mph - N/A   Overcast
9:15 AM 64.4 °F 59.0 °F 83% 30.36 in 10.0 mi ENE 5.8 mph - N/A   Overcast
9:35 AM 64.4 °F 59.0 °F 83% 30.37 in 10.0 mi NE 4.6 mph - N/A   Mostly Cloudy
9:55 AM 64.4 °F 59.0 °F 83% 30.38 in 10.0 mi NE 4.6 mph - N/A   Overcast
10:15 AM 66.2 °F 59.0 °F 78% 30.37 in 10.0 mi NE 4.6 mph - N/A   Overcast
10:35 AM 66.2 °F 59.0 °F 78% 30.37 in 10.0 mi NE 3.5 mph - N/A   Overcast
10:55 AM 68.0 °F 59.0 °F 73% 30.36 in 10.0 mi NE 4.6 mph - N/A   Overcast
11:15 AM 69.8 °F 59.0 °F 68% 30.36 in 10.0 mi NNE 5.8 mph - N/A   Mostly Cloudy
11:35 AM 69.8 °F 59.0 °F 68% 30.35 in 7.0 mi NNE 5.8 mph - N/A   Scattered Clouds
11:55 AM 69.8 °F 59.0 °F 68% 30.34 in 7.0 mi NNE 5.8 mph - N/A   Mostly Cloudy
12:15 PM 71.6 °F 59.0 °F 64% 30.33 in 10.0 mi NNE 5.8 mph - N/A   Overcast
12:35 PM 71.6 °F 59.0 °F 64% 30.32 in 10.0 mi NE 4.6 mph - N/A   Overcast
12:55 PM 73.4 °F 59.0 °F 61% 30.31 in 7.0 mi ENE 5.8 mph - N/A   Overcast
1:15 PM 75.2 °F 55.4 °F 50% 30.31 in 10.0 mi East 5.8 mph - N/A   Mostly Cloudy
1:35 PM 75.2 °F 55.4 °F 50% 30.30 in 7.0 mi ESE 6.9 mph - N/A   Scattered Clouds
1:55 PM 75.2 °F 55.4 °F 50% 30.30 in 10.0 mi SE 5.8 mph - N/A   Clear
2:15 PM 73.4 °F 55.4 °F 53% 30.29 in 7.0 mi East 6.9 mph - N/A   Clear
2:35 PM 73.4 °F 55.4 °F 53% 30.28 in 7.0 mi ESE 5.8 mph - N/A   Clear
2:55 PM 73.4 °F 57.2 °F 57% 30.28 in 7.0 mi ESE 8.1 mph - N/A   Clear
3:15 PM 71.6 °F 57.2 °F 60% 30.28 in 7.0 mi East 6.9 mph - N/A   Clear
3:35 PM 71.6 °F 59.0 °F 64% 30.28 in 7.0 mi ESE 5.8 mph - N/A   Clear
3:55 PM 71.6 °F 59.0 °F 64% 30.27 in 7.0 mi ESE 4.6 mph - N/A   Clear
4:15 PM 69.8 °F 59.0 °F 68% 30.28 in 7.0 mi ESE 4.6 mph - N/A   Clear
4:35 PM 68.0 °F 59.0 °F 73% 30.29 in 7.0 mi East 4.6 mph - N/A   Clear
4:55 PM 68.0 °F 59.0 °F 73% 30.29 in 7.0 mi East 3.5 mph - N/A   Clear
5:15 PM 66.2 °F 59.0 °F 78% 30.29 in 7.0 mi East 3.5 mph - N/A   Scattered Clouds
5:35 PM 64.4 °F 59.0 °F 83% 30.29 in 10.0 mi Calm Calm - N/A   Scattered Clouds
5:55 PM 62.6 °F 59.0 °F 88% 30.30 in 10.0 mi Calm Calm - N/A   Mostly Cloudy
6:15 PM 62.6 °F 59.0 °F 88% 30.30 in 7.0 mi Calm Calm - N/A   Scattered Clouds
6:35 PM 62.6 °F 59.0 °F 88% 30.30 in 7.0 mi Calm Calm - N/A   Scattered Clouds
6:55 PM 62.6 °F 59.0 °F 88% 30.30 in 7.0 mi Calm Calm - N/A   Clear
7:15 PM 60.8 °F 59.0 °F 94% 30.29 in 7.0 mi Calm Calm - N/A   Clear
7:35 PM 60.8 °F 59.0 °F 94% 30.29 in 7.0 mi Calm Calm - N/A   Clear
7:55 PM 60.8 °F 59.0 °F 94% 30.29 in 7.0 mi Calm Calm - N/A   Clear
8:15 PM 60.8 °F 59.0 °F 94% 30.30 in 7.0 mi Calm Calm - N/A   Clear
8:35 PM 59.0 °F 57.2 °F 94% 30.30 in 5.0 mi Calm Calm - N/A   Clear
8:55 PM 59.0 °F 57.2 °F 94% 30.30 in 5.0 mi Calm Calm - N/A   Clear
9:15 PM 59.0 °F 57.2 °F 94% 30.30 in 2.0 mi Calm Calm - N/A   Clear
9:35 PM 57.2 °F 55.4 °F 94% 30.30 in 3.0 mi Calm Calm - N/A   Clear
9:55 PM 57.2 °F 55.4 °F 94% 30.30 in 3.0 mi Calm Calm - N/A   Clear
10:15 PM 57.2 °F 55.4 °F 94% 30.29 in 0.5 mi Calm Calm - N/A Fog Fog
10:35 PM 55.4 °F 55.4 °F 100% 30.29 in 0.5 mi Calm Calm - N/A Fog Fog
10:55 PM 57.2 °F 55.4 °F 94% 30.29 in 1.5 mi Calm Calm - N/A   Scattered Clouds
11:15 PM 55.4 °F 55.4 °F 100% 30.28 in 4.0 mi Calm Calm - N/A   Clear
11:35 PM 55.4 °F 55.4 °F 100% 30.28 in 1.2 mi Calm Calm - N/A   Mist
11:55 PM 55.4 °F 53.6 °F 94% 30.29 in 0.5 mi Calm Calm - N/A Fog Fog